Left ArrowRight Arrow

Hourly Observations for January 6, 2016

Temp ( °F °C ) Dew Point ( °F °C ) Humidity (%) Winds ( mph kmh ) Pressure ( in mb ) Visibility ( mi km ) Precip ( " mm )
12:58 am 00:58 Clear 29 -1.6 25 -3.7 86 86 SE 7 11 30.14 1021 10 16 0.00 0.00
1:58 am 01:58 Clear 30 -1.3 26 -3.5 85 85 ESE 8 13 30.13 1020 10 16 0.00 0.00
2:58 am 02:58 Partly Cloudy 29 -1.4 25 -3.8 84 84 E 6 9 30.12 1020 10 16 0.00 0.00
3:58 am 03:58 Cloudy 31 -0.3 26 -3.3 80 80 SE 13 20 30.11 1020 10 16 0.00 0.00
4:58 am 04:58 Cloudy 32 -0.2 27 -2.7 83 83 SE 10 17 30.10 1019 10 16 0.00 0.00
5:58 am 05:58 Cloudy 32 0 29 -1.9 87 87 SE 9 15 30.09 1019 10 16 0.00 0.00
6:58 am 06:58 Cloudy 32 0.2 30 -1.3 90 90 SE 8 13 30.08 1019 10 16 0.00 0.00
7:25 am 07:25 Cloudy 32 0 30 -1 93 93 SE 7 11 30.09 1019 10 16 0.00 0.00
7:31 am 07:31 Cloudy 32 0 30 -1 93 93 SE 7 11 30.09 1019 10 16 0.00 0.00
7:45 am 07:45 Cloudy 32 0 30 -1 93 93 SE 8 13 30.09 1019 10 16 0.00 0.00
7:58 am 07:58 Cloudy 32 0 30 -1 93 93 SSE 10 17 30.07 1018 10 16 0.00 0.00
8:01 am 08:01 Cloudy 32 0 30 -1 93 93 SE 10 17 30.09 1019 10 16 0.00 0.00
8:10 am 08:10 Cloudy 32 0 32 0 100 100 SSE 10 17 30.09 1019 10 16 0.00 0.00
8:47 am 08:47 Cloudy with Light Snow 32 0 30 -1 93 93 SSE 10 17 30.09 1019 6 10 0.00 0.00
8:58 am 08:58 Cloudy with Light Snow 32 0 32 0 100 100 SSE 10 17 30.08 1019 9 14 0.00 0.03
9:00 am 09:00 Cloudy 32 0 32 0 100 100 undefined N/A 30.09 1019 10 16 0.00 0.00
9:03 am 09:03 Cloudy with Light Wintry Mix 32 0 32 0 100 100 undefined N/A 30.09 1019 7 11 0.00 0.00
9:11 am 09:11 Mostly Cloudy with Light Snow 32 0 32 0 100 100 SSE 13 20 30.09 1019 3 4 0.00 0.00
9:18 am 09:18 Mostly Cloudy with Light Snow 32 0 32 0 100 100 SSE 13 20 30.09 1019 1 2 0.00 0.00
9:38 am 09:38 Cloudy with Light Rain/Snow 34 1 32 0 93 93 SE 9 15 30.09 1019 7 11 0.00 0.00
9:58 am 09:58 Cloudy with Light Rain/Snow 34 1 32 0 93 93 SSE 10 17 30.09 1019 6 10 0.00 0.00
10:41 am 10:41 Cloudy with Light Rain 32 0 32 0 100 100 SE 8 13 30.09 1019 8 13 0.00 0.00
10:51 am 10:51 Cloudy 34 1 32 0 93 93 SE 8 13 30.09 1019 8 13 0.00 0.00
10:58 am 10:58 Cloudy with Light Rain/Snow 33 0.8 32 -0.2 93 93 SE 8 13 30.08 1019 8 13 0.00 0.03
11:36 am 11:36 Cloudy with Drizzle 34 1 32 0 93 93 ESE 9 15 30.09 1019 10 16 0.00 0.00
11:54 am 11:54 Cloudy with Light Rain 32 0 32 0 100 100 SE 9 15 30.06 1018 9 14 0.00 0.00
11:58 am 11:58 Cloudy with Light Rain 34 0.9 32 0.2 95 95 SE 8 13 30.05 1018 9 14 0.00 0.03
11:59 am 11:59 Cloudy with Light Rain 32 0 32 0 100 100 SE 8 13 30.06 1018 9 14 0.00 0.00
12:27 pm 12:27 Cloudy with Light Rain 32 0 32 0 100 100 SE 10 17 30.06 1018 9 14 0.00 0.00
12:58 pm 12:58 Cloudy with Light Rain 34 0.9 33 0.3 96 96 SE 10 17 30.03 1017 6 10 0.00 0.03
1:49 pm 13:49 Cloudy 32 0 32 0 100 100 SE 9 15 30.00 1016 8 13 0.00 0.00
1:58 pm 13:58 Cloudy 33 0.8 33 0.5 98 98 SE 8 13 29.99 1016 9 14 0.01 0.25
2:40 pm 14:40 Cloudy 34 1 32 0 93 93 SE 8 13 29.97 1015 7 11 0.00 0.00
2:43 pm 14:43 Cloudy 34 1 32 0 93 93 SE 9 15 29.97 1015 7 11 0.00 0.00
2:58 pm 14:58 Cloudy with Mist and Fog 34 1 33 0.3 95 95 SE 10 17 29.98 1015 6 10 0.00 0.00
3:49 pm 15:49 Cloudy with Drizzle 32 0 32 0 100 100 SE 10 17 30.00 1016 3 5 0.00 0.00
3:58 pm 15:58 Cloudy with Drizzle 33 0.8 33 0.4 97 97 SE 9 15 29.98 1015 3 5 0.00 0.03
4:54 pm 16:54 Cloudy with Drizzle 32 0 32 0 100 100 SE 9 15 30.00 1016 3 5 0.00 0.00
4:58 pm 16:58 Cloudy with Drizzle 33 0.8 33 0.7 99 99 SE 10 17 29.98 1015 3 5 0.00 0.03
5:28 pm 17:28 Cloudy with Drizzle 32 0 32 0 100 100 SE 10 17 30.00 1016 3 4 0.00 0.00
5:44 pm 17:44 Cloudy with Drizzle 32 0 32 0 100 100 SE 10 17 30.00 1016 3 5 0.00 0.00
5:58 pm 17:58 Cloudy with Drizzle 33 0.6 33 0.4 99 99 ESE 8 13 29.99 1016 3 5 0.00 0.03
6:49 pm 18:49 Cloudy with Drizzle 32 0 32 0 100 100 ESE 9 15 30.00 1016 2 3 0.00 0.00
6:58 pm 18:58 Cloudy with Drizzle 33 0.5 33 0.4 99 99 ESE 8 13 30.00 1016 2 3 0.00 0.03
7:58 pm 19:58 Cloudy with Drizzle 33 0.5 33 0.4 99 99 ESE 8 13 30.00 1016 2 3 0.01 0.25
8:45 pm 20:45 Cloudy with Drizzle 32 0 32 0 100 100 SE 9 15 30.03 1017 3 5 0.00 0.00
8:53 pm 20:53 Cloudy with Drizzle 32 0 32 0 100 100 SE 10 17 30.03 1017 3 5 0.00 0.00
8:58 pm 20:58 Cloudy with Drizzle 33 0.6 33 0.5 99 99 SE 10 17 30.00 1016 3 5 0.00 0.00
9:58 pm 21:58 Cloudy with Drizzle 33 0.6 33 0.5 99 99 ESE 8 13 29.99 1016 3 5 0.00 0.03
10:58 pm 22:58 Cloudy with Drizzle 33 0.7 33 0.6 99 99 ESE 8 13 29.98 1015 3 5 0.00 0.00
11:58 pm 23:58 Cloudy with Mist and Fog 33 0.8 33 0.7 99 99 ESE 6 9 29.97 1015 3 5 0.00 0.03

Powered by Vaisala Xweather